SCP
0 0 0 0 0 0 0 0 0 0 0 0 0 0 0 0 0 0 0 0 0 0 0 0 0 0 0 0 0 0 0 0 0 0 0 0 0 0 0 0 0 0 0
0 0 0 0 0 0 0 0 0 0 0 0 0 0 0 0 0 0 0 0 0 0 0 0 0 0 0 0 0 0 0 0 0 0 0 0 0 0 0 0 0 0 0
0 0 0 0 0 0 0 0 0 0 0 0 0 0 0 0 0 0 0 0 0 0 0 0 0 0 0 0 0 0 0 0 0 0 0 0 0 0 0 0 0 0 0
0 0 0 0 0 0 0 0 0 0 0 0 0 0 0 0 0 0 0 0 0 0 0 0 0 0 0 0 0 0 0 0 0 0 0 0 0 0 0 0 0 0 0
0 0 0 0 0 0 0 0 0 0 0 0 0 0 0 0 0 0 0 0 0 0 0 0 0 0 0 0 0 0 0 0 0 0 0 0 0 0 0 0 0 0 0
0 0 0 0 0 0 0 0 0 0 0 0 0 0 0 0 0 0 0 0 0 0 0 0 0 0 0 0 0 0 0 0 0 0 0 0 0 0 0 0 0 0 0
0 0 0 0 0 0 0 0 0 0 0 0 0 0 0 0 0 0 0 0 0 0 0 0 0 0 0 0 0 0 0 0 0 0 0 0 0 0 0 0 0 0 0
0 0 0 0 0 0 0 0 0 0 0 0 0 0 0 0 0 0 0 0 0 0 0 0 0 0 0 0 0 0 0 0 0 0 0 0 0 0 0 0 0 0 0
1 1 1 1 0 0 0 0 0 0 0 0 0 0 0 0 0 0 0 0 0 0 0 0 0 0 0 0 0 0 0 0 0 0 0 0 0 0 0 0 0 0 0
1 1 1 1 1 1 1 1 1 1 1 0 0 0 0 0 0 0 0 0 0 0 0 0 0 0 0 0 0 0 0 0 0 0 0 0 0 0 0 0 0 0 0
1 1 1 1 1 1 1 1 1 1 1 1 0 0 0 0 0 0 0 0 0 0 0 0 0 0 0 1 1 0 0 0 0 0 0 0 0 0 0 0 0 0 0
1 1 1 1 1 1 1 1 1 1 1 1 0 0 0 0 0 0 0 0 0 0 0 0 0 0 0 1 0 0 0 0 0 0 0 0 0 0 0 0 0 0 0
1 1 1 1 1 1 1 1 1 1 1 1 1 1 0 0 0 0 0 0 0 0 0 0 0 0 0 1 0 0 0 0 0 0 0 0 0 0 0 0 0 0 0
1 1 1 1 1 1 1 1 1 1 1 1 1 1 1 1 0 0 0 0 0 0 0 0 0 0 0 0 0 0 0 0 0 0 0 0 0 0 0 0 0 0 0
1 1 1 1 1 1 1 1 1 1 1 1 1 1 1 1 0 0 0 0 0 0 0 0 0 0 0 0 0 0 0 0 0 0 0 0 0 0 0 0 0 0 0
1 1 1 1 1 1 1 1 1 1 1 1 1 1 1 0 0 0 0 0 0 0 0 0 0 0 0 0 0 0 0 0 0 0 0 0 0 0 0 0 0 0 0
1 1 1 1 1 1 1 1 1 1 1 1 1 0 0 0 0 0 0 0 0 0 0 0 0 0 0 0 0 0 0 0 0 0 0 0 0 0 0 0 0 0 0
1 1 1 1 1 1 1 1 1 1 1 1 1 0 0 0 0 0 0 0 0 0 0 0 0 0 0 0 0 0 0 0 0 0 0 0 0 0 0 0 0 0 0
1 1 1 1 1 0 1 1 1 1 1 0 0 0 0 0 0 0 0 0 0 0 0 0 0 0 0 0 0 0 0 0 0 0 0 0 0 0 0 0 0 0 0
0 0 0 0 0 0 0 0 1 0 0 0 0 0 0 0 0 0 0 0 0 0 0 0 0 0 0 0 0 0 0 0 0 0 0 0 0 0 0 0 0 0 0
0 0 0 0 0 0 0 0 0 0 0 0 0 0 0 0 0 0 0 0 0 0 0 0 0 0 0 0 0 0 0 0 0 0 0 0 0 0 0 0 0 0 0
0 0 0 0 0 0 0 0 0 0 0 0 0 0 0 0 0 0 0 0 0 0 0 0 0 0 0 0 0 0 0 0 0 0 0 0 0 0 0 0 0 0 0
0 0 0 0 0 0 0 0 0 0 0 0 0 0 0 0 0 0 0 0 0 0 0 0 0 0 0 0 0 0 0 0 0 0 0 0 0 0 0 0 0 0 0
0 0 0 0 0 0 0 0 0 0 0 0 0 0 0 0 0 0 0 0 0 0 0 0 0 0 0 0 0 0 0 0 0 0 0 0 0 0 0 0 0 0 0
0 0 0 0 0 0 0 0 0 0 0 0 0 0 0 0 0 0 0 0 0 0 0 0 0 0 0 0 0 0 0 0 0 0 0 0 0 0 0 0 0 0 0
0 0 0 0 0 0 0 0 0 0 0 0 0 0 0 0 0 0 0 0 0 0 0 0 0 0 0 0 0 0 0 0 0 0 0 0 0 0 0 0 0 0 0
Wind_Speed
3 3 2 2 3 3 3 2 2 2 1 0 1 1 1 2 4 6 6 11 11 10 10 10 9 9 9 8 8 8 8 8 8 7 7 7 7 6 6 6 6 6 5
3 3 2 1 1 2 2 2 2 2 2 1 1 0 1 1 3 6 7 8 11 11 11 11 10 10 10 9 9 8 9 9 8 8 8 7 7 7 7 7 7 6 6
4 3 2 2 1 1 2 1 1 1 2 2 2 2 1 2 2 4 7 6 7 10 12 11 11 11 11 11 10 10 10 9 9 9 8 8 8 8 7 7 7 7 7
4 2 2 2 2 2 2 2 1 1 2 1 2 2 2 2 4 4 5 6 7 7 11 14 12 12 12 12 12 12 11 11 10 10 10 9 9 9 8 8 8 8 8
4 3 2 2 2 2 2 3 2 2 1 1 2 3 2 3 3 5 5 6 6 7 7 12 14 14 14 14 13 13 13 12 12 12 12 11 11 10 10 10 9 9 9
4 3 3 3 2 2 2 1 1 1 1 2 3 2 2 4 4 4 5 5 5 7 8 10 9 11 15 14 14 14 14 14 14 14 13 13 13 12 11 11 11 11 10
4 4 3 3 3 2 3 2 2 3 3 2 1 2 3 4 3 3 3 3 5 6 6 8 8 7 8 15 14 14 15 15 15 14 14 14 13 13 12 12 12 11 11
4 5 4 3 3 2 3 3 2 2 3 3 2 1 1 2 2 4 3 3 4 4 5 7 7 7 5 6 9 14 15 15 15 15 14 14 13 13 13 13 13 13 12
4 3 4 4 3 3 3 4 3 4 3 3 3 2 2 2 2 2 3 3 2 2 2 2 4 5 6 4 6 12 15 13 14 15 14 14 13 13 13 14 14 13 13
4 4 4 4 3 3 3 4 4 3 3 3 2 3 3 2 1 2 2 1 2 3 3 3 4 5 6 4 5 8 13 14 13 13 13 13 12 12 12 13 13 14 13
4 4 4 4 4 3 3 3 2 3 3 4 3 2 3 3 3 3 3 2 2 2 3 3 3 3 4 4 4 7 12 13 13 12 11 11 11 12 12 12 13 13 13
3 4 4 3 4 3 4 3 3 4 3 3 3 2 2 2 3 3 3 3 3 2 2 2 2 2 3 3 5 7 10 12 12 12 11 11 11 11 11 12 12 12 12
2 2 2 2 3 3 3 3 3 3 3 3 3 3 3 3 2 2 3 3 3 2 2 2 2 2 3 2 3 6 8 10 11 10 10 10 9 9 9 9 9 9 9
2 1 2 2 2 3 4 3 3 3 3 3 4 4 3 3 2 2 2 2 2 2 1 2 0 1 1 1 2 4 4 8 9 9 9 8 7 7 6 6 5 5 5
1 1 2 2 2 2 2 2 2 2 2 2 3 3 3 3 3 2 2 1 2 2 2 2 1 0 0 1 2 2 3 5 7 7 8 7 7 6 5 4 4 4 4
1 1 0 1 1 1 1 1 1 2 2 2 2 2 2 2 2 2 2 2 1 2 2 1 1 0 1 1 3 2 3 5 5 6 6 5 5 4 4 3 3 3 3
0 0 0 0 0 0 0 1 1 1 1 1 1 1 1 1 1 2 1 2 1 1 2 2 1 1 1 2 1 1 2 3 3 6 5 5 5 4 4 3 2 2 2
1 1 0 1 1 0 0 0 0 0 0 0 1 1 1 1 1 2 2 2 2 1 1 2 2 1 1 1 1 1 1 2 2 5 5 6 6 5 4 4 3 3 2
1 1 2 1 1 1 1 1 1 1 1 2 2 2 2 2 2 1 2 2 2 1 0 1 1 1 1 1 1 1 2 2 2 3 4 5 6 6 5 4 3 3 2
2 2 2 1 1 2 2 2 2 2 2 3 3 4 4 4 3 3 2 3 2 1 1 1 0 1 1 2 1 1 1 2 2 2 3 4 5 6 5 5 4 3 3
3 2 2 2 2 2 3 2 2 2 3 3 3 4 5 7 8 5 4 4 3 2 2 1 1 2 2 2 1 1 1 1 2 2 2 2 2 2 2 3 4 4 2
4 4 4 3 4 4 5 5 3 3 3 3 3 3 4 5 6 8 8 8 6 3 3 3 2 2 2 2 1 1 0 1 1 1 1 1 1 2 2 2 3 4 3
5 5 5 5 5 6 8 7 5 3 4 4 4 4 4 5 5 5 6 8 8 8 6 3 3 3 3 3 2 2 1 1 1 1 1 1 1 2 1 2 4 3 3
5 5 6 6 5 7 8 6 5 4 5 6 6 5 5 6 6 5 5 6 6 6 5 4 4 4 4 3 3 2 1 2 2 2 1 1 1 1 1 1 3 3 2
5 6 5 6 6 7 9 8 5 4 6 7 8 9 8 7 9 7 5 5 5 4 6 7 6 5 6 6 5 3 2 2 2 2 2 1 1 1 1 1 1 2 1
5 5 6 7 7 8 10 10 6 4 5 6 6 8 11 9 9 9 5 5 5 4 4 4 4 5 4 5 6 4 4 3 2 2 3 3 2 2 1 0 1 1 0
Wind_Direction
152 142 149 175 184 172 183 202 188 153 125 177 229 145 102 77 115 125 139 159 161 164 167 171 173 175 175 177 179 181 179 177 176 176 177 177 177 177 179 180 178 177 174
139 137 151 198 210 172 166 195 166 155 178 210 234 239 131 127 125 137 147 165 172 174 177 180 184 187 188 189 190 189 190 190 187 188 189 189 189 192 193 190 188 187 186
144 164 169 201 214 166 151 188 206 185 196 194 200 216 196 173 162 157 157 166 176 187 189 190 192 194 196 197 199 199 196 196 195 197 200 200 200 200 201 203 202 198 197
155 176 189 202 194 197 179 201 225 207 220 207 206 211 196 183 184 187 184 178 176 182 194 198 198 200 203 205 206 205 203 204 203 204 206 207 209 209 208 211 212 209 208
170 194 212 189 197 212 207 218 187 209 230 231 239 216 213 201 199 205 198 195 185 177 180 194 201 203 207 210 211 211 210 209 209 211 213 215 216 216 215 217 218 219 218
183 203 217 193 214 216 227 224 177 217 226 234 261 264 250 224 207 208 204 201 195 194 187 180 192 208 213 212 213 214 215 214 213 215 217 219 221 220 220 221 222 224 224
190 200 233 184 212 220 219 213 209 219 226 225 237 272 276 256 218 210 218 214 204 204 192 174 184 190 201 213 216 216 216 217 217 217 219 221 223 223 222 221 223 224 226
204 202 209 215 207 216 225 235 236 231 230 212 203 205 279 288 259 227 214 215 221 208 200 194 191 185 189 186 208 215 219 219 220 220 221 222 224 225 223 224 224 225 227
207 229 203 217 215 213 211 217 224 226 236 235 208 189 210 241 275 264 230 226 218 203 209 185 189 187 193 187 187 208 214 218 220 223 224 223 222 224 225 226 227 228 229
209 211 211 215 226 236 220 218 212 216 226 244 239 219 218 207 222 288 276 225 211 209 206 216 211 197 191 192 189 187 203 212 217 221 223 223 223 224 225 227 231 232 230
212 219 211 210 218 233 237 231 221 217 224 232 238 231 225 225 219 224 264 273 250 222 202 208 218 198 194 193 197 196 194 203 210 217 222 223 224 226 227 229 234 238 237
215 216 220 211 220 226 235 232 227 226 233 247 253 254 244 226 219 215 234 248 245 239 228 217 206 199 202 194 210 210 190 193 203 210 217 222 225 227 229 232 236 240 242
219 208 222 215 225 233 238 237 225 236 236 241 243 254 261 258 242 226 232 245 248 245 240 225 204 208 207 200 210 201 188 187 196 203 211 217 221 224 226 230 234 237 240
226 190 191 208 227 237 235 228 228 230 228 231 242 242 254 266 263 250 242 243 264 268 269 264 220 250 278 207 193 182 177 188 196 198 200 204 206 209 213 219 223 230 235
234 206 181 197 225 251 241 237 240 249 236 227 241 243 243 255 259 265 262 243 229 249 265 272 265 325 251 182 164 170 154 170 181 188 192 195 196 194 196 200 203 213 220
356 11 3 189 222 251 254 241 248 245 242 248 245 251 256 272 271 269 268 262 234 231 250 278 267 27 9 26 102 118 116 124 143 163 169 167 167 167 171 177 194 204 209
75 74 341 43 28 314 262 241 243 242 243 262 272 261 257 268 289 300 296 286 279 220 243 275 313 349 36 30 55 94 99 110 122 134 143 142 137 132 131 136 142 149 178
91 91 47 40 303 301 59 62 271 314 356 316 318 341 327 305 295 307 313 303 296 263 225 257 294 324 336 1 22 38 77 101 106 120 134 135 131 130 126 116 103 95 101
72 59 60 51 23 14 20 28 52 47 52 47 36 35 17 6 0 348 341 329 328 333 160 198 268 325 354 10 19 31 63 63 77 110 115 123 130 130 127 122 116 111 104
74 63 60 59 49 32 16 24 57 62 60 58 55 49 39 38 29 17 13 5 1 11 57 83 47 8 11 4 28 52 64 60 65 63 76 93 108 112 113 107 106 105 100
76 64 51 41 42 48 23 26 67 74 63 59 59 61 61 61 58 52 45 29 24 28 40 54 41 26 19 15 8 12 80 80 63 61 85 92 103 107 108 104 97 92 104
58 62 56 50 50 39 22 38 66 66 63 61 55 57 71 63 67 68 66 60 55 52 44 53 43 26 17 12 6 25 80 105 53 24 59 61 92 87 91 101 111 114 111
62 61 60 64 60 38 34 43 65 75 68 58 53 49 46 45 54 70 70 66 60 57 58 62 54 28 22 10 10 34 35 45 68 14 14 2 68 75 92 101 130 129 124
66 63 59 59 60 43 37 44 60 82 77 65 56 54 57 49 38 52 71 68 62 52 51 61 60 49 45 27 21 33 60 76 95 43 11 355 41 84 93 109 155 145 128
78 72 63 59 57 42 32 40 59 93 84 71 63 54 51 51 31 44 65 70 69 63 61 62 63 66 56 41 35 35 33 52 48 50 25 8 5 10 109 135 157 153 122
85 79 69 61 57 50 41 37 34 78 90 90 82 69 56 51 42 42 53 57 54 44 55 60 55 51 52 49 43 35 25 29 34 41 17 3 360 359 355 37 121 144 173